Weather History for KIAB - July, 2013

Change the Weather History Date:

Saturday, July 27, 2013

  Actual Average Record
Temperature  
Mean Temperature 70 °F -  
Max Temperature 78 °F 88 °F 108 °F (2011)
Min Temperature 62 °F 68 °F 59 °F (2005)
Cooling Degree Days 5    
Growing Degree Days 20 (Base 50)    
Moisture  
Dew Point 60 °F    
Average Humidity 76    
Maximum Humidity 94    
Minimum Humidity 56    
Precipitation  
Precipitation 0.00 in - - ()
Sea Level Pressure  
Sea Level Pressure 30.05 in    
Wind  
Wind Speed 9 mph (ENE)    
Max Wind Speed 13 mph    
Max Gust Speed -    
Visibility 10 miles    
Events Rain , Thunderstorm    
Averages and records for this station are not official NWS values.
T = Trace of Precipitation, MM = Missing Value Source: NWS Daily Summary

Daily Weather History Graph

Daily Weather History Graph

Search for Another Location

Airport or City:

Trip Planner

Search our weather history database for the weather conditions in past years. The results will help you decide how hot, cold, wet, or windy it might be!

Date:

Astronomy

Jul. 27, 2013 Rise Set
Actual Time 6:29 AM CDT 8:41 PM CDT
Civil Twilight 5:59 AM CDT 9:11 PM CDT
Nautical Twilight 5:23 AM CDT 9:46 PM CDT
Astronomical Twilight 4:44 AM CDT 10:26 PM CDT
Moon 11:38 PM CDT (7/27) 12:02 PM CDT (7/27)
Length of Visible Light 15h 11m
Length of Day
14h 12m
Waning Gibbous, 70% of the Moon is Illuminated
Jul 27
Waning Gibbous
Jul 29
Last Quarter
Aug 6
New
Aug 14
First Quarter
Aug 20
Full

Hourly Weather History & Observations

Time (CDT) Temp. Dew Point Humidity Pressure Visibility Wind Dir Wind Speed Gust Speed Precip Events Conditions
12:58 AM 70.9 °F 61.9 °F 73% 30.08 in 10.0 mi NNE 12.7 mph - N/A   Clear
1:58 AM 68.9 °F 60.4 °F 74% 30.09 in 10.0 mi NE 10.4 mph - N/A   Clear
2:58 AM 67.1 °F 59.5 °F 77% 30.09 in 10.0 mi NE 10.4 mph - N/A   Clear
3:58 AM 65.5 °F 58.6 °F 79% 30.06 in 10.0 mi ENE 11.5 mph - N/A   Clear
4:58 AM 64.4 °F 59.0 °F 83% 30.06 in 10.0 mi ENE 6.9 mph - N/A   Clear
6:56 AM 62.6 °F 59.0 °F 88% 30.11 in 10.0 mi NE 8.1 mph - N/A   Clear
7:58 AM 63.7 °F 58.3 °F 83% 30.11 in 10.0 mi ENE 10.4 mph - N/A   Clear
8:58 AM 66.0 °F 58.8 °F 78% 30.12 in 10.0 mi ENE 12.7 mph - N/A   Clear
9:58 AM 68.7 °F 57.0 °F 66% 30.11 in 10.0 mi East 9.2 mph - N/A   Clear
10:58 AM 70.5 °F 55.8 °F 59% 30.11 in 10.0 mi East 11.5 mph - N/A   Clear
11:58 AM 72.3 °F 56.7 °F 58% 30.10 in 10.0 mi ENE 10.4 mph - N/A   Clear
12:58 PM 74.3 °F 58.3 °F 57% 30.08 in 10.0 mi East 10.4 mph - N/A   Clear
1:58 PM 75.7 °F 60.3 °F 59% 30.06 in 10.0 mi East 8.1 mph - N/A   Partly Cloudy
3:58 PM 78.4 °F 61.5 °F 56% 30.04 in 10.0 mi ENE 8.1 mph - N/A   Clear
4:58 PM 76.8 °F 61.3 °F 59% 30.03 in 10.0 mi ENE 9.2 mph - N/A   Partly Cloudy
5:58 PM 77.4 °F 61.0 °F 57% 30.03 in 10.0 mi East 6.9 mph - N/A   Clear
6:58 PM 75.0 °F 58.3 °F 56% 30.01 in 10.0 mi ENE 10.4 mph - N/A   Clear
7:58 PM 71.4 °F 58.5 °F 64% 29.99 in 10.0 mi ENE 8.1 mph - N/A   Clear
8:18 PM 71.6 °F 59.0 °F 64% 30.02 in 10.0 mi NE 11.5 mph - N/A Rain Light Rain
8:27 PM 69.8 °F 59.0 °F 68% 30.00 in 10.0 mi East 10.4 mph - N/A   Partly Cloudy
8:58 PM 70.0 °F 59.0 °F 68% 29.98 in 10.0 mi ESE 6.9 mph - 0.00 in   Clear
9:58 PM 68.9 °F 60.3 °F 74% 29.99 in 10.0 mi ENE 9.2 mph - N/A   Clear
10:30 PM 68.0 °F 60.8 °F 78% 30.03 in 10.0 mi ENE 6.9 mph - N/A Rain Light Rain
10:58 PM 66.6 °F 62.8 °F 88% 30.00 in 10.0 mi East 5.8 mph - 0.00 in Rain Light Rain
11:03 PM 66.2 °F 62.6 °F 88% 30.03 in 10.0 mi ENE 5.8 mph - N/A Rain Light Rain
11:08 PM 66.2 °F 62.6 °F 88% 30.02 in 10.0 mi ENE 6.9 mph - N/A Rain Light Rain
11:13 PM 66.2 °F 62.6 °F 88% 30.03 in 10.0 mi Variable 4.6 mph - N/A   Light Drizzle
11:14 PM 66.2 °F 62.6 °F 88% 30.03 in 10.0 mi Variable 2.3 mph - N/A   Scattered Clouds
11:16 PM 66.2 °F 60.8 °F 83% 30.04 in 10.0 mi North 2.3 mph - N/A   Light Drizzle
11:36 PM 66.2 °F 62.6 °F 88% 30.05 in 10.0 mi North 1.2 mph - N/A Rain Light Rain
11:41 PM 66.2 °F 62.6 °F 88% 30.05 in 10.0 mi NNE 4.6 mph - N/A Rain Rain
11:46 PM 64.4 °F 62.6 °F 94% 30.05 in 8.0 mi NNE 4.6 mph - N/A Rain Rain
11:51 PM 64.4 °F 62.6 °F 94% 30.06 in 6.0 mi NNE 3.5 mph - N/A Rain Light Rain
11:52 PM 64.4 °F 62.6 °F 94% 30.06 in 6.0 mi NNE 3.5 mph - N/A Rain Light Rain
11:53 PM 64.4 °F 62.6 °F 94% 30.06 in 6.0 mi NNE 3.5 mph - N/A Rain , Thunderstorm Light Thunderstorms and Rain
11:58 PM 64.6 °F 61.7 °F 90% 30.04 in 5.0 mi NNE 4.6 mph - 0.00 in Rain , Thunderstorm Light Thunderstorms and Rain